Overview Statistics Trail Chart Weather Telemetry Raw packets
 

This is the latest recevied weather packets stored in our database for station/object W0AKY-13. If no packets are shown the sender has not sent any weather packets the latest 10 day(s).

<< 23 24 25 26 27 28 29 >>
Time Temp. Humidity Pressure Rain* Wind** Luminosity Snow
1788452583 30.56° C 66% 1012.8 hPa 0 mm - 126 W/m² -
1788452279 30.56° C 66% 1012.6 hPa 0 mm - 127 W/m² -
1788451974 30.56° C 66% 1012.6 hPa 0 mm - 92 W/m² -
1788451669 30.56° C 65% 1012.7 hPa 0 mm - 98 W/m² -
1788451368 30.56° C 65% 1012.7 hPa 0 mm - 145 W/m² -
1788451067 30.56° C 63% 1012.7 hPa 0 mm - 150 W/m² -
1788450762 31.11° C 65% 1012.6 hPa 0 mm - 129 W/m² -
1788450458 31.11° C 64% 1012.6 hPa 0 mm - 133 W/m² -
1788450154 31.11° C 62% 1012.6 hPa 0 mm - 232 W/m² -
1788449849 31.67° C 62% 1012.5 hPa 0 mm - 209 W/m² -
1788449545 31.11° C 64% 1012.7 hPa 0 mm - 271 W/m² -
1788449241 30° C 64% 1012.7 hPa 0 mm - 398 W/m² -
1788448937 29.44° C 69% 1012.7 hPa 0 mm - 142 W/m² -
1788448636 28.89° C 69% 1012.8 hPa 0 mm - 121 W/m² -
1788448332 28.89° C 70% 1012.8 hPa 0 mm - 105 W/m² -
1788448027 28.89° C 69% 1012.5 hPa 0 mm - 99 W/m² -
1788447722 28.89° C 69% 1012.7 hPa 0 mm - 89 W/m² -
1788447422 28.33° C 69% 1012.8 hPa 0 mm - 87 W/m² -
1788447117 28.33° C 71% 1013 hPa 0 mm - 99 W/m² -
1788446816 28.89° C 69% 1012.9 hPa 0 mm - 83 W/m² -
1788446511 29.44° C 66% 1013 hPa 0 mm - 189 W/m² -
1788446208 28.89° C 69% 1012.8 hPa 0 mm - 237 W/m² -
1788445903 28.33° C 70% 1013 hPa 0 mm - 109 W/m² -
1788445616 27.78° C 71% 1013 hPa 0 mm - 66 W/m² -
1788445295 27.78° C 69% 1013 hPa 0 mm - 69 W/m² -

* Rain latest hour (hover to see other rain measurements)
** Current wind speed in m/s (hover to see current wind gust speed)